• In Netherlands
  • List of Countries
  • For 7 days
  • Water Temperature
  • Satellite Maps
  • Weather Map
  • Weather Widgets
  • user-avatar
    Login

    Hourly Weather Tibissa

    Today, 21 January, Saturday

    Time Temperature Precipitation Wind Pressure Humidity
    00:00 +3°C° 0 mm 4 mps 677 mmHg 88%
    01:00 +1°C° 0 mm 4 mps 677 mmHg 89%
    02:00 +1°C° 0 mm 4 mps 677 mmHg 87%
    03:00 +2°C° 0 mm 3 mps 676 mmHg 85%
    04:00 +2°C° 0 mm 3 mps 676 mmHg 83%
    05:00 +1°C° 0 mm 3 mps 676 mmHg 81%
    06:00 0°C° 0 mm 3 mps 676 mmHg 78%
    07:00 0°C° 0 mm 3 mps 675 mmHg 75%
    08:00 0°C° 0 mm 4 mps 676 mmHg 70%
    09:00 +1°C° 0 mm 6 mps 677 mmHg 65%
    10:00 0°C° 0 mm 7 mps 677 mmHg 60%
    11:00 +3°C° 0 mm 7 mps 677 mmHg 56%
    12:00 +4°C° 0 mm 7 mps 678 mmHg 51%
    13:00 +5°C° 0 mm 8 mps 678 mmHg 46%
    14:00 +5°C° 0 mm 8 mps 678 mmHg 47%
    15:00 +5°C° 0 mm 8 mps 678 mmHg 47%
    16:00 +5°C° 0 mm 7 mps 678 mmHg 48%
    17:00 +3°C° 0 mm 7 mps 678 mmHg 53%
    18:00 +2°C° 0 mm 6 mps 678 mmHg 59%
    19:00 +1°C° 0 mm 5 mps 678 mmHg 65%
    20:00 +1°C° 0 mm 5 mps 678 mmHg 66%
    21:00 +1°C° 0 mm 5 mps 679 mmHg 68%
    22:00 0°C° 0 mm 5 mps 679 mmHg 69%
    23:00 0°C° 0 mm 5 mps 679 mmHg 72%

    Tomorrow, 22 January, Sunday

    Time Temperature Precipitation Wind Pressure Humidity
    00:00 0°C° 0 mm 5 mps 679 mmHg 74%
    01:00 0°C° 0 mm 5 mps 679 mmHg 77%
    02:00 0°C° 0 mm 5 mps 679 mmHg 80%
    03:00 0°C° 0 mm 4 mps 679 mmHg 82%
    04:00 -1°C° 0 mm 4 mps 678 mmHg 85%
    05:00 -1°C° 0 mm 4 mps 678 mmHg 86%
    06:00 -1°C° 0 mm 4 mps 678 mmHg 87%
    07:00 -2°C° 0 mm 4 mps 678 mmHg 88%
    08:00 0°C° 0 mm 5 mps 679 mmHg 81%
    09:00 +1°C° 0 mm 6 mps 680 mmHg 74%
    10:00 +3°C° 0 mm 7 mps 680 mmHg 66%
    11:00 +4°C° 0 mm 7 mps 680 mmHg 62%
    12:00 +4°C° 0 mm 8 mps 680 mmHg 57%
    13:00 +5°C° 0 mm 8 mps 680 mmHg 52%
    14:00 +5°C° 0 mm 8 mps 680 mmHg 52%
    15:00 +5°C° 0 mm 8 mps 679 mmHg 52%
    16:00 +4°C° 0 mm 8 mps 679 mmHg 52%
    17:00 +3°C° 0 mm 7 mps 679 mmHg 55%
    18:00 +2°C° 0 mm 6 mps 679 mmHg 58%
    19:00 +2°C° 0 mm 5 mps 679 mmHg 61%
    20:00 +1°C° 0 mm 5 mps 679 mmHg 63%
    21:00 +1°C° 0 mm 5 mps 679 mmHg 64%
    22:00 +1°C° 0 mm 4 mps 680 mmHg 65%
    23:00 +1°C° 0 mm 4 mps 679 mmHg 66%

    Day after tomorrow, 23 January, Monday

    Time Temperature Precipitation Wind Pressure Humidity
    00:00 +1°C° 0 mm 4 mps 679 mmHg 67%
    01:00 +2°C° 0 mm 3 mps 679 mmHg 68%
    02:00 +1°C° 0 mm 3 mps 679 mmHg 70%
    03:00 +1°C° 0 mm 2 mps 678 mmHg 72%
    04:00 +2°C° 0 mm 1 mps 678 mmHg 74%
    05:00 +1°C° 0 mm 1 mps 678 mmHg 76%
    06:00 +1°C° 0 mm 1 mps 678 mmHg 78%
    07:00 +1°C° 0 mm 1 mps 678 mmHg 80%
    08:00 +2°C° 0 mm 1 mps 679 mmHg 75%
    09:00 +3°C° 0 mm 2 mps 679 mmHg 69%
    10:00 +5°C° 0 mm 2 mps 680 mmHg 63%
    11:00 +6°C° 0 mm 2 mps 680 mmHg 59%
    12:00 +7°C° 0 mm 3 mps 680 mmHg 55%
    13:00 +7°C° 0 mm 4 mps 680 mmHg 51%
    14:00 +7°C° 0 mm 4 mps 680 mmHg 51%
    15:00 +7°C° 0 mm 4 mps 680 mmHg 51%
    16:00 +8°C° 0 mm 4 mps 680 mmHg 51%
    17:00 +7°C° 0 mm 3 mps 680 mmHg 61%
    18:00 +4°C° 0 mm 3 mps 679 mmHg 70%
    19:00 +4°C° 0 mm 2 mps 679 mmHg 79%
    20:00 +3°C° 0 mm 2 mps 680 mmHg 82%
    21:00 +3°C° 0 mm 2 mps 680 mmHg 84%
    22:00 +3°C° 0 mm 2 mps 680 mmHg 86%
    23:00 +2°C° 0 mm 2 mps 680 mmHg 87%

    24 January, Tuesday

    Time Temperature Precipitation Wind Pressure Humidity
    00:00 +1°C° 0 mm 3 mps 680 mmHg 89%
    01:00 +1°C° 0 mm 3 mps 680 mmHg 90%
    02:00 +1°C° 0 mm 3 mps 680 mmHg 90%
    03:00 +1°C° 0 mm 3 mps 680 mmHg 90%
    04:00 +1°C° 0 mm 3 mps 680 mmHg 90%
    05:00 +1°C° 0 mm 3 mps 680 mmHg 89%
    06:00 +1°C° 0 mm 3 mps 680 mmHg 89%
    07:00 +1°C° 0 mm 3 mps 680 mmHg 89%
    08:00 +1°C° 0 mm 4 mps 681 mmHg 83%
    09:00 +3°C° 0 mm 4 mps 682 mmHg 77%
    10:00 +3°C° 0 mm 5 mps 682 mmHg 72%
    11:00 +5°C° 0 mm 5 mps 682 mmHg 66%
    12:00 +6°C° 0 mm 5 mps 682 mmHg 61%
    13:00 +7°C° 0 mm 5 mps 682 mmHg 56%
    14:00 +7°C° 0.1 mm 5 mps 682 mmHg 58%
    15:00 +7°C° 0.1 mm 6 mps 682 mmHg 59%
    16:00 +7°C° 0.1 mm 6 mps 682 mmHg 61%
    17:00 +6°C° 0.5 mm 5 mps 682 mmHg 67%
    18:00 +5°C° 0.5 mm 5 mps 682 mmHg 74%
    19:00 +4°C° 0.5 mm 4 mps 683 mmHg 80%
    20:00 +3°C° 0.1 mm 4 mps 683 mmHg 82%
    21:00 +3°C° 0.1 mm 4 mps 683 mmHg 84%
    22:00 +2°C° 0.1 mm 5 mps 684 mmHg 86%
    23:00 +1°C° 0 mm 4 mps 684 mmHg 87%

    25 January, Wednesday

    Time Temperature Precipitation Wind Pressure Humidity
    00:00 +1°C° 0 mm 4 mps 683 mmHg 88%
    01:00 +2°C° 0 mm 3 mps 683 mmHg 89%
    02:00 +1°C° 0.1 mm 4 mps 683 mmHg 88%
    03:00 +1°C° 0.1 mm 4 mps 683 mmHg 87%
    04:00 +1°C° 0.1 mm 4 mps 683 mmHg 86%
    05:00 +1°C° 0.2 mm 4 mps 683 mmHg 87%
    06:00 +1°C° 0.2 mm 4 mps 684 mmHg 88%
    07:00 +2°C° 0.2 mm 3 mps 684 mmHg 89%
    08:00 +3°C° 0 mm 4 mps 685 mmHg 87%
    09:00 +4°C° 0 mm 4 mps 685 mmHg 84%
    10:00 +5°C° 0 mm 5 mps 686 mmHg 82%
    11:00 +5°C° 0 mm 5 mps 686 mmHg 77%
    12:00 +6°C° 0 mm 5 mps 686 mmHg 72%
    13:00 +7°C° 0 mm 5 mps 686 mmHg 67%
    14:00 +7°C° 0 mm 5 mps 686 mmHg 66%
    15:00 +7°C° 0 mm 5 mps 686 mmHg 64%
    16:00 +7°C° 0 mm 5 mps 686 mmHg 62%
    17:00 +6°C° 0 mm 4 mps 687 mmHg 70%
    18:00 +5°C° 0 mm 4 mps 687 mmHg 78%
    19:00 +3°C° 0 mm 3 mps 687 mmHg 86%
    20:00 +3°C° 0 mm 3 mps 687 mmHg 87%
    21:00 +3°C° 0 mm 2 mps 688 mmHg 89%
    22:00 +3°C° 0 mm 2 mps 688 mmHg 90%
    23:00 +3°C° 0 mm 2 mps 688 mmHg 91%

    26 January, Thursday

    Time Temperature Precipitation Wind Pressure Humidity
    00:00 +3°C° 0 mm 2 mps 688 mmHg 91%
    01:00 +3°C° 0 mm 2 mps 688 mmHg 92%
    02:00 +3°C° 0 mm 2 mps 688 mmHg 93%
    03:00 +3°C° 0 mm 2 mps 688 mmHg 93%
    04:00 +3°C° 0 mm 2 mps 688 mmHg 94%
    05:00 +3°C° 0 mm 2 mps 689 mmHg 93%
    06:00 +2°C° 0 mm 2 mps 689 mmHg 93%
    07:00 +2°C° 0 mm 2 mps 689 mmHg 93%
    08:00 +4°C° 0 mm 2 mps 689 mmHg 87%
    09:00 +6°C° 0 mm 1 mps 690 mmHg 80%
    10:00 +8°C° 0 mm 1 mps 690 mmHg 74%
    11:00 +8°C° 0 mm 2 mps 690 mmHg 67%
    12:00 +9°C° 0 mm 2 mps 690 mmHg 60%
    13:00 +10°C° 0 mm 3 mps 690 mmHg 53%
    14:00 +10°C° 0 mm 3 mps 690 mmHg 51%
    15:00 +11°C° 0 mm 3 mps 690 mmHg 50%
    16:00 +11°C° 0 mm 3 mps 690 mmHg 49%
    17:00 +9°C° 0 mm 2 mps 690 mmHg 56%
    18:00 +7°C° 0 mm 2 mps 689 mmHg 64%
    19:00 +5°C° 0 mm 2 mps 689 mmHg 71%
    20:00 +5°C° 0 mm 2 mps 689 mmHg 73%
    21:00 +4°C° 0 mm 2 mps 689 mmHg 75%
    22:00 +4°C° 0 mm 2 mps 689 mmHg 77%
    23:00 +3°C° 0 mm 2 mps 689 mmHg 78%
    Show more